This demonstration page uses our WeatherBlox Daily Observations layout. Learn more.

Left ArrowRight Arrow

Hourly Observations for July 18, 2017

Temp ( °F °C ) Dew Point ( °F °C ) Humidity (%) Winds ( mph kmh ) Pressure ( in mb ) Visibility ( mi km ) Precip ( " mm )
12:53 am 00:53 Clear 72 22.2 71 21.7 97 97 N N/A 30.02 1017 8 13 N/A
1:53 am 01:53 Mostly Clear 71 21.7 71 21.7 100 100 N N/A 30.02 1017 7 11 N/A
2:53 am 02:53 Clear 71 21.7 70 21.1 96 96 N N/A 30.02 1017 7 11 N/A
3:53 am 03:53 Clear with Mist and Fog 70 21.1 70 21.1 100 100 N N/A 30.03 1017 6 10 N/A
4:53 am 04:53 Mostly Cloudy with Mist and Fog 71 21.7 71 21.7 100 100 N N/A 30.04 1017 6 10 N/A
6:53 am 06:53 Sunny with Mist and Fog 69 20.6 68 20 96 96 N N/A 30.06 1018 5 8 N/A
7:53 am 07:53 Sunny with Mist and Fog 74 23.3 72 22.2 94 94 N N/A 30.06 1018 6 10 N/A
8:53 am 08:53 Hazy 79 26.1 73 22.8 82 82 N N/A 30.06 1018 6 10 N/A
9:53 am 09:53 Sunny 83 28.3 72 22.2 70 70 N 3 6 30.07 1018 8 13 N/A
10:53 am 10:53 Sunny 86 30 71 21.7 61 61 SW 6 9 30.07 1018 10 16 N/A
11:53 am 11:53 Partly Cloudy 87 30.6 70 21.1 57 57 N N/A 30.07 1018 10 16 N/A
12:53 pm 12:53 Mostly Sunny 87 30.6 70 21.1 57 57 S 7 11 30.07 1018 10 16 N/A
1:53 pm 13:53 Mostly Cloudy 88 31.1 70 21.1 55 55 SW 8 13 30.06 1018 10 16 N/A
2:53 pm 14:53 Mostly Sunny 89 31.7 72 22.2 57 57 SW 8 13 30.06 1018 10 16 N/A
3:53 pm 15:53 Sunny 89 31.7 72 22.2 57 57 S 6 9 30.04 1017 9 14 N/A
4:53 pm 16:53 Mostly Cloudy 90 32.2 72 22.2 56 56 W 8 13 30.04 1017 9 14 N/A
5:53 pm 17:53 Sunny 88 31.1 72 22.2 59 59 N 6 9 30.03 1017 9 14 N/A
6:53 pm 18:53 Sunny 86 30 72 22.2 63 63 N 5 7 30.03 1017 9 14 N/A
7:53 pm 19:53 Sunny 86 30 73 22.8 65 65 W 6 9 30.04 1017 9 14 N/A
8:53 pm 20:53 Sunny 80 26.7 74 23.3 82 82 N N/A 30.03 1017 8 13 N/A
9:53 pm 21:53 Clear 75 23.9 73 22.8 94 94 N N/A 30.05 1018 8 13 N/A
10:53 pm 22:53 Mostly Clear 74 23.3 73 22.8 97 97 N N/A 30.08 1019 9 14 N/A
11:53 pm 23:53 Clear 73 22.8 72 22.2 96 96 N N/A 30.07 1018 8 13 N/A

Powered by AerisWeather